Location: Jewell
(31.5029°N, 97.1961°W)
Time: 08:25:17
(UTC+00:00)

ARIANE 6 FM1 Upper Stage - Pass Details

Date: 15 December 2025
Orbit: 522 x 610 km, 62.0° (Epoch: 18 January)

Event Time Altitude Azimuth Distance (km) Brightness Sun altitude
Rises 11:13:41 0° 184° (S) 2,721 6.3 -26.3°
Reaches altitude 10° 11:16:13 10° 170° (S) 1,814 5.5 -25.8°
Maximum altitude 11:19:33 24° 115° (ESE) 1,129 4.9 -25.1°
Drops below altitude 10° 11:22:50 10° 60° (ENE) 1,786 5.8 -24.4°
Sets 11:25:17 0° 47° (NE) 2,668 6.6 -23.9°
